Location: Caltech
(34.1382°N, 118.1253°W)
Time: 05:22:27
(UTC-07:00)

NOAA 19 - Visible Passes

Search period start: 23 March 2017 00:00
Search period end: 02 April 2017 00:00
Orbit: 841 x 862 km, 99.1° (Epoch: 21 March)

Date Brightness Start Highest point End Pass type
(mag) Time Alt. Az. Time Alt. Az. Time Alt. Az.
23 Mar 7.7 03:09:10 10° NE 03:11:00 16° ENE 03:11:00 16° ENE visible
23 Mar 5.6 04:48:27 10° N 04:53:02 46° NW 04:53:02 46° NW visible
24 Mar 7.9 02:58:36 10° ENE 02:59:33 12° ENE 02:59:33 12° ENE visible
24 Mar 5.3 04:36:53 10° N 04:41:35 57° NW 04:41:35 57° NW visible
25 Mar 5.3 04:25:22 10° N 04:30:08 68° N 04:30:08 68° N visible
26 Mar 5.4 04:13:55 10° NNE 04:18:41 67° NE 04:18:41 67° NE visible
26 Mar 7.0 05:57:27 10° NW 05:59:19 12° WNW 06:00:43 11° WNW visible
27 Mar 5.7 04:02:31 10° NNE 04:07:13 56° ENE 04:07:13 56° ENE visible
27 Mar 6.8 05:44:58 10° NNW 05:48:01 15° WNW 05:49:15 14° WNW visible
28 Mar 6.1 03:51:11 10° NNE 03:55:45 45° ENE 03:55:45 45° ENE visible
28 Mar 6.5 05:32:55 10° NNW 05:36:42 20° WNW 05:37:48 19° W visible
29 Mar 6.5 03:39:56 10° NNE 03:44:18 35° E 03:44:18 35° E visible
29 Mar 6.2 05:21:01 10° NNW 05:25:22 25° WNW 05:26:20 24° W visible
30 Mar 6.9 03:28:45 10° NE 03:32:50 27° E 03:32:50 27° E visible
30 Mar 5.9 05:09:14 10° N 05:14:00 32° WNW 05:14:52 30° W visible
31 Mar 7.2 03:17:44 10° NE 03:21:23 21° E 03:21:23 21° E visible
31 Mar 5.6 04:57:33 10° N 05:02:37 40° WNW 05:03:25 38° W visible
01 Apr 7.5 03:06:55 10° NE 03:09:55 16° E 03:09:55 16° E visible
01 Apr 5.3 04:45:56 10° N 04:51:13 52° WNW 04:51:57 49° W visible
